• Join FlightAware (Why Join?)
  • Login
  • US Flag 
12:36PM EDT


 

Airport Tracker/Info


-or-


 

Live Flight TrackerFlight Track Log ✈ DAL268 ✈ 18-May-2013 ✈ KJFK - LLBG / TLV

Flight Track Log - Related Links

Times and Time Zones

All times are in EDT time to prevent confusion due to time zone crossing. See the DAL268 flight status page for this flight to view local times or setup timezone preferences in your user account.

Time Position Orientation Groundspeed Altitude Reporting Facility
EDT Latitude Longitude Course Direction KTS MPH feet Rate Location/Type
11:48PM 40.6270 -73.7690 270° West 178 205 200  Level FlightAware
11:49PM 40.6100 -73.7460 134° Southeast 183 211 1,000 1,380 Climbing FlightAware
11:49PM 40.5880 -73.7260 145° Southeast 206 237 1,600 840 Climbing FlightAware
11:49PM 40.5690 -73.7020 136° Southeast 241 277 1,800 720 Climbing FlightAware
11:50PM 40.5630 -73.6820 112° Southeast 259 298 2,100 1,560 Climbing FlightAware
11:50PM 40.5550 -73.6330 102° East 282 325 3,000 2,160 Climbing FlightAware
11:51PM 40.5460 -73.5930 106° East 285 328 4,100 2,460 Climbing FlightAware
11:51PM 40.5330 -73.5420 109° East 293 337 5,300 2,580 Climbing FlightAware
11:52PM 40.5190 -73.4932 111° Southeast 300 345 6,600 2,700 Climbing FlightAware ADS-B
11:52PM 40.5124 -73.4651 107° East 306 352 7,200 2,160 Climbing FlightAware ADS-B
11:52PM 40.5055 -73.4381 109° East 312 359 7,700 2,100 Climbing FlightAware ADS-B
11:52PM 40.4984 -73.4090 108° East 316 364 8,300 2,220 Climbing FlightAware ADS-B
11:53PM 40.4909 -73.3814 110° East 322 371 8,900 2,100 Climbing FlightAware ADS-B
11:53PM 40.4830 -73.3515 109° East 328 377 9,400 1,920 Climbing FlightAware ADS-B
11:53PM 40.4677 -73.2939 109° East 341 392 10,400 1,260 Climbing FlightAware ADS-B
11:54PM 40.4512 -73.2301 109° East 378 435 10,700 180 Climbing FlightAware ADS-B
11:54PM 40.4328 -73.1593 109° East 403 464 10,600  Descending FlightAware ADS-B
11:55PM 40.4147 -73.0892 109° East 394 453 10,700 60 Climbing FlightAware ADS-B
11:55PM 40.3983 -73.0271 109° East 403 464 10,700 120 Level FlightAware ADS-B
11:56PM 40.3931 -72.9885 100° East 408 470 10,800 1,200 Climbing FlightAware ADS-B
11:56PM 40.4009 -72.9192 82° East 415 478 11,600 1,800 Climbing FlightAware ADS-B
11:57PM 40.4267 -72.8473 65° Northeast 426 490 12,600 2,400 Climbing FlightAware ADS-B
11:57PM 40.4534 -72.7753 64° Northeast 423 487 14,100 2,400 Climbing FlightAware ADS-B
11:58PM 40.4807 -72.7041 63° Northeast 430 495 15,100 1,680 Climbing FlightAware ADS-B
11:58PM 40.5180 -72.6030 64° Northeast 446 513 16,200 1,620 Climbing FlightAware
11:58PM 40.5263 -72.5812 63° Northeast 440 506 16,500 2,100 Climbing FlightAware ADS-B
11:59PM 40.5538 -72.5072 64° Northeast 454 522 17,500 1,920 Climbing FlightAware ADS-B
12:00AM 40.5822 -72.4323 63° Northeast 458 527 18,500 1,860 Climbing FlightAware ADS-B
12:00AM 40.6122 -72.3490 65° Northeast 462 532 19,500 1,680 Climbing FlightAware ADS-B
12:01AM 40.6427 -72.2674 64° Northeast 470 541 20,300 1,560 Climbing FlightAware ADS-B
12:01AM 40.6732 -72.1845 64° Northeast 474 545 21,200 1,560 Climbing FlightAware ADS-B
12:02AM 40.7025 -72.1036 64° Northeast 476 548 22,000 1,500 Climbing FlightAware ADS-B
12:02AM 40.7336 -72.0197 64° Northeast 482 555 22,800 1,500 Climbing FlightAware ADS-B
12:03AM 40.7629 -71.9398 64° Northeast 485 558 23,600 1,380 Climbing FlightAware ADS-B
12:03AM 40.7990 -71.8400 64° Northeast 491 565 24,400 1,440 Climbing FlightAware
12:04AM 40.8350 -71.7400 65° Northeast 489 563 25,500 1,500 Climbing FlightAware
12:05AM 40.8930 -71.5790 64° Northeast 490 564 26,900 1,260 Climbing FlightAware
12:06AM 40.9330 -71.4680 64° Northeast 496 571 27,600 960 Climbing FlightAware
12:07AM 40.9880 -71.3120 65° Northeast 28,500 960 Climbing FlightAware
12:07AM 41.0200 -71.2230 64° Northeast 506 582 29,100 1,260 Climbing FlightAware
12:08AM 41.0640 -71.0990 65° Northeast 502 578 30,200 1,140 Climbing FlightAware
12:09AM 41.1230 -70.9320 65° Northeast 492 566 31,100 1,140 Climbing FlightAware
12:10AM 41.1680 -70.8040 65° Northeast 483 556 32,200 1,260 Climbing FlightAware
12:10AM 41.2160 -70.6670 65° Northeast 478 550 33,100 780 Climbing FlightAware
12:11AM 41.2560 -70.5520 65° Northeast 480 552 33,500 360 Climbing FlightAware
12:12AM 41.2860 -70.4630 66° East 480 552 33,600 240 Climbing FlightAware
12:13AM 41.3360 -70.3180 65° Northeast 484 557 33,900 180 Climbing FlightAware
12:14AM 41.3830 -70.1820 65° Northeast 489 563 34,000 60 Climbing FlightAware
12:14AM 41.4140 -70.0880 66° East 489 563 34,000  Level FlightAware
12:15AM 41.4450 -69.9940 66° East 489 563 34,000  Level FlightAware
12:16AM 41.5060 -69.8180 65° Northeast 492 566 34,000  Level FlightAware
12:17AM 41.5530 -69.6710 67° East 494 568 34,000  Level FlightAware
12:17AM 41.5860 -69.5720 66° East 495 570 34,000  Level FlightAware
12:18AM 41.6290 -69.4440 66° East 495 570 34,000  Level FlightAware
12:19AM 41.6590 -69.3480 67° East 495 570 34,000  Level FlightAware
12:19AM 41.6970 -69.2280 67° East 495 570 34,000  Level FlightAware
12:20AM 41.7470 -69.0840 65° Northeast 34,000  Level FlightAware
12:21AM 41.7820 -68.9710 67° East 499 574 34,000  Level FlightAware
12:21AM 41.8240 -68.8420 66° East 499 574 34,000  Level FlightAware
12:22AM 41.8740 -68.6870 67° East 504 580 34,000  Level FlightAware
12:23AM 41.9200 -68.5420 67° East 508 585 34,000  Level FlightAware
12:24AM 41.9520 -68.4400 67° East 507 583 34,000  Level FlightAware
12:24AM 41.9880 -68.3270 67° East 509 586 34,000  Level FlightAware
12:25AM 42.0260 -68.2060 67° East 509 586 34,000  Level FlightAware
12:26AM 42.0700 -68.0650 67° East 509 586 34,000  Level FlightAware
12:27AM 42.1010 -67.9660 67° East 509 586 34,000  Level FlightAware
12:27AM 42.1330 -67.8660 67° East 509 586 34,000  Level FlightAware
12:28AM 42.1790 -67.7110 68° East 513 590 34,000  Level FlightAware
12:29AM 42.2190 -67.5830 67° East 514 592 34,000  Level FlightAware
12:29AM 42.2570 -67.4590 67° East 514 592 34,000  Level FlightAware
12:30AM 42.2890 -67.3590 67° East 514 592 34,000  Level FlightAware
12:31AM 42.3210 -67.2580 67° East 514 592 34,000  Level FlightAware
12:31AM 42.3520 -67.1570 67° East 514 592 34,000  Level FlightAware
12:32AM 42.3920 -67.0320 67° East 514 592 34,000  Level FlightAware
12:33AM 42.4230 -66.9310 67° East 514 592 34,000  Level FlightAware
12:34AM 42.4550 -66.8300 67° East 514 592 34,000  Level FlightAware
12:34AM 42.4860 -66.7290 67° East 514 592 34,000  Level FlightAware
12:35AM 42.5600 -66.4390 71° East 508 585 34,000  Level FlightAware
12:36AM 42.5980 -66.3070 69° East 510 587 34,000  Level FlightAware
12:36AM 42.6260 -66.2120 68° East 510 587 34,000  Level FlightAware
12:37AM 42.6680 -66.0710 68° East 510 587 34,000  Level FlightAware
12:38AM 42.7040 -65.9410 69° East 512 589 34,000  Level FlightAware
12:38AM 42.7380 -65.8260 68° East 515 593 34,000  Level FlightAware
12:39AM 42.7720 -65.7030 69° East 515 593 34,000  Level FlightAware
12:40AM 42.8010 -65.6000 69° East 515 593 34,000  Level FlightAware
12:41AM 42.8380 -65.4710 69° East 515 593 34,000  Level FlightAware
12:41AM 42.8670 -65.3670 69° East 515 593 34,000  Level FlightAware
12:42AM 42.8960 -65.2640 69° East 515 593 34,000  Level FlightAware
12:43AM 42.9250 -65.1610 69° East 515 593 34,000  Level FlightAware
12:43AM 42.9960 -64.9020 69° East 520 598 34,000  Level FlightAware
12:44AM 43.0330 -64.7670 69° East 521 600 34,000  Level FlightAware
12:45AM 43.0670 -64.6440 69° East 520 598 34,000  Level FlightAware
12:45AM 43.0990 -64.5230 70° East 520 598 34,000  Level FlightAware
12:46AM 43.1340 -64.3940 70° East 518 596 34,000  Level FlightAware
12:47AM 43.1790 -64.2270 70° East 519 597 34,000  Level FlightAware
12:48AM 43.2070 -64.1220 70° East 519 597 34,000  Level FlightAware
12:48AM 43.2340 -64.0170 71° East 519 597 34,000  Level FlightAware
12:49AM 43.2620 -63.9120 70° East 519 597 34,000  Level FlightAware
12:50AM 43.2970 -63.7800 70° East 519 597 34,000  Level FlightAware
12:51AM 43.3250 -63.6740 70° East 519 597 34,000  Level FlightAware
12:51AM 43.3530 -63.5690 70° East 519 597 34,000  Level FlightAware
12:52AM 43.3810 -63.4630 70° East 519 597 34,000  Level FlightAware
12:53AM 43.4090 -63.3580 70° East 519 597 34,000  Level FlightAware
12:53AM 43.4440 -63.2260 70° East 519 597 34,000  Level FlightAware
12:54AM 43.4720 -63.1200 70° East 519 597 34,000  Level FlightAware
12:55AM 43.5000 -63.0140 70° East 519 597 34,000  Level FlightAware
12:55AM 43.5280 -62.9090 70° East 519 597 34,000  Level FlightAware
12:56AM 43.6290 -62.4830 72° East 34,000  Level FlightAware
12:57AM 43.6333 -62.3833 72° East 520 598 34,000  Level Gander Center
12:58AM 43.6667 -62.1833 77° East 520 598 34,000  Level Gander Center
12:59AM 43.7333 -62.0000 63° Northeast 520 598 34,000  Level Gander Center
01:00AM 43.7833 -61.8167 69° East 520 598 34,000  Level Gander Center
01:01AM 43.8167 -61.6333 76° East 520 598 34,000  Level Gander Center
01:02AM 43.8667 -61.4167 72° East 520 598 34,000  Level Gander Center
01:08AM 44.1490 -60.2830 72° East 520 598 34,000  Level FlightAware
01:09AM 44.1760 -60.1650 72° East 520 598 34,000  Level FlightAware
01:09AM 44.2010 -60.0570 72° East 520 598 34,000  Level FlightAware
01:10AM 44.2370 -59.8890 73° East 520 598 34,000  Level FlightAware
01:11AM 44.2700 -59.7360 73° East 520 598 34,000  Level FlightAware
01:11AM 44.2980 -59.6110 73° East 520 598 34,000  Level FlightAware
01:12AM 44.3260 -59.4790 73° East 521 600 34,000  Level FlightAware
01:13AM 44.3570 -59.3370 73° East 520 598 34,000  Level FlightAware
01:13AM 44.3840 -59.2110 73° East 521 600 34,000  Level FlightAware
01:14AM 44.4150 -59.0630 74° East 523 602 34,000  Level FlightAware
01:15AM 44.4430 -58.9330 73° East 522 601 34,000  Level FlightAware
01:16AM 44.4710 -58.8000 74° East 521 600 34,000  Level FlightAware
01:16AM 44.5000 -58.6580 74° East 520 598 34,000  Level FlightAware
01:17AM 44.5260 -58.5380 73° East 520 598 34,000  Level FlightAware
01:18AM 44.5570 -58.3830 74° East 518 596 34,000  Level FlightAware
01:18AM 44.5840 -58.2510 74° East 517 595 34,000  Level FlightAware
01:19AM 44.6130 -58.1090 74° East 516 594 34,000  Level FlightAware
01:20AM 44.6390 -57.9810 74° East 515 593 34,000  Level FlightAware
01:20AM 44.6640 -57.8550 74° East 514 592 34,000  Level FlightAware
01:21AM 44.6920 -57.7170 74° East 514 592 34,000  Level FlightAware
01:22AM 44.7190 -57.5790 75° East 515 593 34,000  Level FlightAware
01:23AM 44.7480 -57.4340 74° East 516 594 34,000  Level FlightAware
01:23AM 44.7690 -57.3270 75° East 517 595 34,000  Level FlightAware
01:24AM 44.7960 -57.1950 74° East 517 595 34,000  Level FlightAware
01:25AM 44.8260 -57.0310 75° East 519 597 34,000  Level FlightAware
01:25AM 44.8520 -56.8930 75° East 521 600 34,000  Level FlightAware
01:26AM 44.8830 -56.7290 75° East 523 602 34,000  Level FlightAware
01:27AM 44.9050 -56.6170 74° East 523 602 34,000  Level FlightAware
01:28AM 44.9260 -56.5050 75° East 523 602 34,000  Level FlightAware
01:28AM 44.9470 -56.3930 75° East 523 602 34,000  Level FlightAware
01:29AM 44.9740 -56.2520 75° East 523 602 34,000  Level FlightAware
01:30AM 44.9950 -56.1400 75° East 523 602 34,000  Level FlightAware
01:30AM 45.0160 -56.0280 75° East 523 602 34,000  Level FlightAware
01:31AM 45.0380 -55.9150 75° East 523 602 34,000  Level FlightAware
01:32AM 45.0640 -55.7740 75° East 523 602 34,000  Level FlightAware
01:33AM 45.0860 -55.6620 74° East 523 602 34,000  Level FlightAware
01:33AM 45.1070 -55.5490 75° East 523 602 34,000  Level FlightAware
01:34AM 45.1280 -55.4370 75° East 523 602 34,000  Level FlightAware
01:35AM 45.1550 -55.2960 75° East 523 602 34,000  Level FlightAware
01:35AM 45.1710 -55.2110 75° East 523 602 34,000  Level FlightAware
01:38AM 45.3030 -54.4820 75° East 525 604 34,000  Level FlightAware
01:38AM 45.3320 -54.3220 75° East 525 604 34,000  Level FlightAware
01:39AM 45.3630 -54.1440 76° East 524 603 34,000  Level FlightAware
01:40AM 45.3810 -54.0410 76° East 524 603 34,000  Level FlightAware
01:41AM 45.4060 -53.8990 76° East 524 603 34,000  Level FlightAware
01:41AM 45.4210 -53.8130 76° East 524 603 34,000  Level FlightAware
01:42AM 45.4460 -53.6710 76° East 524 603 34,000  Level FlightAware
01:43AM 45.4660 -53.5570 76° East 524 603 34,000  Level FlightAware
01:43AM 45.4850 -53.4430 77° East 524 603 34,000  Level FlightAware
01:44AM 45.5100 -53.3000 76° East 524 603 34,000  Level FlightAware
01:45AM 45.5300 -53.1860 76° East 524 603 34,000  Level FlightAware
01:45AM 45.5500 -53.0720 76° East 524 603 34,000  Level FlightAware
01:46AM 45.5700 -52.9570 76° East 524 603 34,000  Level FlightAware
01:47AM 45.5900 -52.8430 76° East 524 603 34,000  Level FlightAware
01:48AM 45.6150 -52.7000 76° East 524 603 34,000  Level FlightAware
01:48AM 45.6350 -52.5860 76° East 524 603 34,000  Level FlightAware
01:49AM 45.6550 -52.4710 76° East 524 603 34,000  Level FlightAware
01:50AM 45.7000 -51.9500 76° East 530 610 34,000  Level Gander Center
01:51AM 45.7333 -51.7500 77° East 520 598 34,000  Level Gander Center
01:52AM 45.7667 -51.5333 77° East 530 610 34,000  Level Gander Center
01:53AM 45.7833 -51.3333 83° East 520 598 34,000  Level Gander Center
01:54AM 45.8167 -51.1167 77° East 530 610 34,000  Level Gander Center
01:55AM 45.8500 -50.9167 76° East 530 610 34,000  Level Gander Center
01:56AM 45.8667 -50.7167 83° East 530 610 34,000  Level Gander Center
01:56AM 45.8667 -50.7167 83° East 540 621 34,000  Level Gander Center
01:57AM 45.9000 -50.5000 77° East 530 610 34,000  Level Gander Center
01:58AM 45.9333 -50.3000 76° East 530 610 34,000  Level Gander Center
01:59AM 45.9667 -50.0667 78° East 540 621 34,000  Level Gander Center
02:00AM 46.0000 -49.9000 74° East 540 621 34,000  Level Gander Center
02:01AM 46.0667 -49.6833 66° East 560 644 34,000  Level Gander Center
02:02AM 46.1500 -49.5000 57° Northeast 560 644 34,000  Level Gander Center
02:03AM 46.2000 -49.3000 70° East 560 644 34,000  Level Gander Center
02:04AM 46.2833 -49.0833 61° Northeast 560 644 34,000  Level Gander Center
02:05AM 46.3500 -48.9000 62° Northeast 560 644 34,000  Level Gander Center
02:06AM 46.4167 -48.6833 66° East 550 633 34,000  Level Gander Center
02:07AM 46.5000 -48.4833 59° Northeast 570 656 34,000  Level Gander Center
02:08AM 46.5667 -48.2833 64° Northeast 550 633 34,000  Level Gander Center
02:09AM 46.6167 -48.0667 71° East 560 644 34,000  Level Gander Center
02:10AM 46.6833 -47.8500 66° East 560 644 34,000  Level Gander Center
02:11AM 46.7500 -47.6667 62° Northeast 560 644 34,000  Level Gander Center
02:12AM 46.8167 -47.4833 62° Northeast 560 644 34,000  Level Gander Center
02:13AM 46.8833 -47.2500 67° East 560 644 34,000  Level Gander Center
02:14AM 46.9500 -47.0667 62° Northeast 550 633 34,000  Level Gander Center
02:15AM 47.0000 -46.8500 71° East 550 633 34,000  Level Gander Center
02:16AM 47.0833 -46.6667 56° Northeast 550 633 34,000  Level Gander Center
02:18AM 47.1890 -46.3475 64° Northeast  Level FlightAware Approximate
02:25AM 47.6067 -45.0455 64° Northeast  Level FlightAware Approximate
02:26AM 47.6651 -44.8578 65° Northeast  Level FlightAware Approximate
02:27AM 47.7233 -44.6697 65° Northeast  Level FlightAware Approximate
02:28AM 47.7811 -44.4812 65° Northeast  Level FlightAware Approximate
02:29AM 47.8387 -44.2923 66° East  Level FlightAware Approximate
02:30AM 47.8959 -44.1029 66° East  Level FlightAware Approximate
02:31AM 47.9528 -43.9131 66° East  Level FlightAware Approximate
02:32AM 48.0079 -43.7210 67° East  Level FlightAware Approximate
02:33AM 48.0618 -43.5289 67° East  Level FlightAware Approximate
02:34AM 48.1155 -43.3364 67° East  Level FlightAware Approximate
02:35AM 48.1688 -43.1435 67° East  Level FlightAware Approximate
02:36AM 48.2218 -42.9502 68° East  Level FlightAware Approximate
02:37AM 48.2744 -42.7565 68° East  Level FlightAware Approximate
02:38AM 48.3271 -42.5626 67° East  Level FlightAware Approximate
02:39AM 48.3805 -42.3690 67° East  Level FlightAware Approximate
02:40AM 48.4337 -42.1750 68° East  Level FlightAware Approximate
02:41AM 48.4865 -41.9806 68° East  Level FlightAware Approximate
02:42AM 48.5390 -41.7858 68° East  Level FlightAware Approximate
02:43AM 48.5911 -41.5905 68° East  Level FlightAware Approximate
02:44AM 48.6430 -41.3949 68° East  Level FlightAware Approximate
02:45AM 48.6945 -41.1989 68° East  Level FlightAware Approximate
02:46AM 48.7456 -41.0025 68° East  Level FlightAware Approximate
02:47AM 48.7965 -40.8056 69° East  Level FlightAware Approximate
02:48AM 48.8470 -40.6084 69° East  Level FlightAware Approximate
02:49AM 48.8971 -40.4108 69° East  Level FlightAware Approximate
02:50AM 48.9469 -40.2128 69° East  Level FlightAware Approximate
02:51AM 48.9963 -40.0151 69° East  Level FlightAware Approximate
02:52AM 49.0458 -39.8173 69° East  Level FlightAware Approximate
02:53AM 49.0951 -39.6191 69° East  Level FlightAware Approximate
02:54AM 49.1441 -39.4206 69° East  Level FlightAware Approximate
02:55AM 49.1927 -39.2216 69° East  Level FlightAware Approximate
02:56AM 49.2409 -39.0223 70° East  Level FlightAware Approximate
02:57AM 49.2889 -38.8226 70° East  Level FlightAware Approximate
02:58AM 49.3364 -38.6225 70° East  Level FlightAware Approximate
02:59AM 49.3837 -38.4220 70° East  Level FlightAware Approximate
03:00AM 49.4305 -38.2211 70° East  Level FlightAware Approximate
03:01AM 49.4771 -38.0199 70° East  Level FlightAware Approximate
03:02AM 49.5233 -37.8182 70° East  Level FlightAware Approximate
03:03AM 49.5691 -37.6162 71° East  Level FlightAware Approximate
03:04AM 49.6146 -37.4138 71° East  Level FlightAware Approximate
03:05AM 49.6597 -37.2111 71° East  Level FlightAware Approximate
03:06AM 49.7045 -37.0079 71° East  Level FlightAware Approximate
03:07AM 49.7489 -36.8044 71° East  Level FlightAware Approximate
03:08AM 49.7929 -36.6005 71° East  Level FlightAware Approximate
03:09AM 49.8366 -36.3963 72° East  Level FlightAware Approximate
03:10AM 49.8801 -36.1917 72° East  Level FlightAware Approximate
03:11AM 49.9232 -35.9867 72° East  Level FlightAware Approximate
03:12AM 49.9659 -35.7814 72° East  Level FlightAware Approximate
03:13AM 50.0083 -35.5758 72° East  Level FlightAware Approximate
03:14AM 50.0503 -35.3698 72° East  Level FlightAware Approximate
03:15AM 50.0920 -35.1634 72° East  Level FlightAware Approximate
03:16AM 50.1333 -34.9566 73° East  Level FlightAware Approximate
03:17AM 50.1742 -34.7496 73° East  Level FlightAware Approximate
03:18AM 50.2147 -34.5421 73° East  Level FlightAware Approximate
03:19AM 50.2549 -34.3343 73° East  Level FlightAware Approximate
03:20AM 50.2947 -34.1262 73° East  Level FlightAware Approximate
03:21AM 50.3342 -33.9177 73° East  Level FlightAware Approximate
03:22AM 50.3721 -33.7083 74° East  Level FlightAware Approximate
03:23AM 50.4088 -33.4983 75° East  Level FlightAware Approximate
03:24AM 50.4452 -33.2879 75° East  Level FlightAware Approximate
03:25AM 50.4812 -33.0773 75° East  Level FlightAware Approximate
03:26AM 50.5168 -32.8663 75° East  Level FlightAware Approximate
03:27AM 50.5521 -32.6550 75° East  Level FlightAware Approximate
03:28AM 50.5888 -32.4442 74° East  Level FlightAware Approximate
03:29AM 50.6265 -32.2336 74° East  Level FlightAware Approximate
03:30AM 50.6639 -32.0227 74° East  Level FlightAware Approximate
03:31AM 50.7009 -31.8114 74° East  Level FlightAware Approximate
03:32AM 50.7375 -31.5999 75° East  Level FlightAware Approximate
03:33AM 50.7737 -31.3880 75° East  Level FlightAware Approximate
03:34AM 50.8095 -31.1758 75° East  Level FlightAware Approximate
03:35AM 50.8449 -30.9632 75° East  Level FlightAware Approximate
03:36AM 50.8800 -30.7503 75° East  Level FlightAware Approximate
03:37AM 50.9146 -30.5371 75° East  Level FlightAware Approximate
03:38AM 50.9489 -30.3236 76° East  Level FlightAware Approximate
03:39AM 50.9828 -30.1098 76° East  Level FlightAware Approximate
03:40AM 51.0045 -29.8928 86° East  Level FlightAware Approximate
03:41AM 51.0135 -29.6726 86° East  Level FlightAware Approximate
03:42AM 51.0221 -29.4523 86° East  Level FlightAware Approximate
03:43AM 51.0303 -29.2319 87° East  Level FlightAware Approximate
03:44AM 51.0381 -29.0114 87° East  Level FlightAware Approximate
03:45AM 51.0454 -28.7909 87° East  Level FlightAware Approximate
03:46AM 51.0524 -28.5703 87° East  Level FlightAware Approximate
03:47AM 51.0589 -28.3496 87° East  Level FlightAware Approximate
03:48AM 51.0650 -28.1289 87° East  Level FlightAware Approximate
03:49AM 51.0707 -27.9081 88° East  Level FlightAware Approximate
03:50AM 51.0760 -27.6873 88° East  Level FlightAware Approximate
03:51AM 51.0808 -27.4664 88° East  Level FlightAware Approximate
03:52AM 51.0853 -27.2455 88° East  Level FlightAware Approximate
03:53AM 51.0893 -27.0245 88° East  Level FlightAware Approximate
03:54AM 51.0929 -26.8035 88° East  Level FlightAware Approximate
03:55AM 51.0961 -26.5825 89° East  Level FlightAware Approximate
03:56AM 51.0989 -26.3614 89° East  Level FlightAware Approximate
03:57AM 51.1012 -26.1403 89° East  Level FlightAware Approximate
03:58AM 51.1032 -25.9192 89° East  Level FlightAware Approximate
03:59AM 51.1047 -25.6980 89° East  Level FlightAware Approximate
04:00AM 51.1058 -25.4769 89° East  Level FlightAware Approximate
04:01AM 51.1065 -25.2558 90° East  Level FlightAware Approximate
04:02AM 51.1068 -25.0346 90° East  Level FlightAware Approximate
04:03AM 51.1067 -24.8135 90° East  Level FlightAware Approximate
04:04AM 51.1061 -24.5923 90° East  Level FlightAware Approximate
04:05AM 51.1051 -24.3712 90° East  Level FlightAware Approximate
04:06AM 51.1037 -24.1500 90° East  Level FlightAware Approximate
04:07AM 51.1019 -23.9289 91° East  Level FlightAware Approximate
04:08AM 51.0997 -23.7078 91° East  Level FlightAware Approximate
04:09AM 51.0970 -23.4867 91° East  Level FlightAware Approximate
04:10AM 51.0940 -23.2657 91° East  Level FlightAware Approximate
04:11AM 51.0905 -23.0447 91° East  Level FlightAware Approximate
04:12AM 51.0866 -22.8237 92° East  Level FlightAware Approximate
04:13AM 51.0823 -22.6028 92° East  Level FlightAware Approximate
04:14AM 51.0775 -22.3819 92° East  Level FlightAware Approximate
04:15AM 51.0724 -22.1610 92° East  Level FlightAware Approximate
04:16AM 51.0668 -21.9395 92° East  Level FlightAware Approximate
04:17AM 51.0608 -21.7180 92° East  Level FlightAware Approximate
04:18AM 51.0544 -21.4966 93° East  Level FlightAware Approximate
04:19AM 51.0476 -21.2763 93° East  Level FlightAware Approximate
04:20AM 51.0404 -21.0561 93° East  Level FlightAware Approximate
04:21AM 51.0328 -20.8360 93° East  Level FlightAware Approximate
04:22AM 51.0247 -20.6160 93° East  Level FlightAware Approximate
04:23AM 51.0163 -20.3960 93° East  Level FlightAware Approximate
04:24AM 51.0074 -20.1761 94° East  Level FlightAware Approximate
04:25AM 50.9952 -19.9569 100° East  Level FlightAware Approximate
04:26AM 50.9711 -19.7400 100° East  Level FlightAware Approximate
04:27AM 50.9465 -19.5235 100° East  Level FlightAware Approximate
04:28AM 50.9215 -19.3071 100° East  Level FlightAware Approximate
04:29AM 50.8961 -19.0910 100° East  Level FlightAware Approximate
04:30AM 50.8703 -18.8751 101° East  Level FlightAware Approximate
04:31AM 50.8442 -18.6594 101° East  Level FlightAware Approximate
04:32AM 50.8176 -18.4440 101° East  Level FlightAware Approximate
04:33AM 50.7906 -18.2289 101° East  Level FlightAware Approximate
04:34AM 50.7632 -18.0140 101° East  Level FlightAware Approximate
04:35AM 50.7355 -17.7993 101° East  Level FlightAware Approximate
04:36AM 50.7073 -17.5849 102° East  Level FlightAware Approximate
04:37AM 50.6788 -17.3708 102° East  Level FlightAware Approximate
04:38AM 50.6498 -17.1569 102° East  Level FlightAware Approximate
04:39AM 50.6205 -16.9433 102° East  Level FlightAware Approximate
04:40AM 50.5908 -16.7299 102° East  Level FlightAware Approximate
04:41AM 50.5607 -16.5168 102° East  Level FlightAware Approximate
04:42AM 50.5302 -16.3040 103° East  Level FlightAware Approximate
04:43AM 50.4993 -16.0915 103° East  Level FlightAware Approximate
04:44AM 50.4680 -15.8793 103° East  Level FlightAware Approximate
04:45AM 50.4363 -15.6673 103° East  Level FlightAware Approximate
04:46AM 50.4043 -15.4556 103° East  Level FlightAware Approximate
04:47AM 50.3719 -15.2443 103° East  Level FlightAware Approximate
04:48AM 50.3391 -15.0331 104° East  Level FlightAware Approximate
04:49AM 50.3059 -14.8223 104° East  Level FlightAware Approximate
04:50AM 50.2723 -14.6118 104° East  Level FlightAware Approximate
04:51AM 50.2383 -14.4016 104° East  Level FlightAware Approximate
04:52AM 50.2040 -14.1917 104° East  Level FlightAware Approximate
04:53AM 50.1693 -13.9821 104° East  Level FlightAware Approximate
04:54AM 50.1343 -13.7727 105° East  Level FlightAware Approximate
04:55AM 50.0991 -13.5637 105° East  Level FlightAware Approximate
04:56AM 50.0635 -13.3549 105° East  Level FlightAware Approximate
04:57AM 50.0275 -13.1464 105° East  Level FlightAware Approximate
04:58AM 49.9911 -12.9382 105° East  Level FlightAware Approximate
04:59AM 49.9544 -12.7304 105° East  Level FlightAware Approximate
05:00AM 49.9173 -12.5229 105° East  Level FlightAware Approximate
05:01AM 49.8798 -12.3157 106° East  Level FlightAware Approximate
05:01AM 50.0810 -11.0780 106° East 460 529 37,000  Level FlightAware
05:01AM 50.0420 -10.9360 113° Southeast 460 529 37,000  Level FlightAware
05:02AM 50.0100 -10.8210 113° Southeast 462 532 37,000  Level FlightAware
05:03AM 49.9700 -10.6840 114° Southeast 462 532 37,000  Level FlightAware
05:03AM 49.9380 -10.5720 114° Southeast 463 533 37,000  Level FlightAware
05:04AM 49.9020 -10.4410 113° Southeast 463 533 37,000  Level FlightAware
05:05AM 49.8550 -10.2760 114° Southeast 465 535 37,000  Level FlightAware
05:06AM 49.8160 -10.1440 115° Southeast 467 537 37,000  Level FlightAware
05:06AM 49.7880 -10.0450 114° Southeast 467 537 37,000  Level FlightAware
05:07AM 49.7390 -9.8780 114° Southeast 469 540 37,000  Level FlightAware
05:08AM 49.7000 -9.7500 115° Southeast 470 541 37,000  Level FlightAware
05:09AM 49.6610 -9.6160 114° Southeast 468 539 37,000  Level FlightAware
05:09AM 49.6350 -9.5280 114° Southeast 466 536 37,000  Level FlightAware
05:10AM 49.5950 -9.3930 115° Southeast 465 535 37,000  Level FlightAware
05:10AM 49.5570 -9.2700 115° Southeast 466 536 37,000  Level FlightAware
05:11AM 49.5170 -9.1340 114° Southeast 466 536 37,000  Level FlightAware
05:12AM 49.4820 -9.0200 115° Southeast 467 537 37,000 -1,620 Level FlightAware
05:12AM 49.4622 -8.9550 115° Southeast 498 573 35,500 -2,580 Descending FlightAware UK
05:12AM 49.4457 -8.9008 115° Southeast 498 573 35,500 3,900 Level FlightAware UK
05:13AM 49.4440 -8.8970 115° Southeast 469 540 37,000  Climbing FlightAware
05:13AM 49.4236 -8.8285 115° Southeast 496 571 35,500 -2,460 Descending FlightAware UK
05:13AM 49.4070 -8.7742 115° Southeast 500 575 35,500 3,420 Level FlightAware UK
05:13AM 49.4030 -8.7610 115° Southeast 470 541 37,000  Climbing FlightAware
05:14AM 49.3849 -8.7018 115° Southeast 498 573 35,500 -2,700 Descending FlightAware UK
05:14AM 49.3682 -8.6475 115° Southeast 498 573 35,500 3,720 Level FlightAware UK
05:14AM 49.3670 -8.6430 115° Southeast 471 542 37,000  Climbing FlightAware
05:14AM 49.3458 -8.5751 115° Southeast 500 575 35,500 -2,520 Descending FlightAware UK
05:15AM 49.3290 -8.5208 115° Southeast 498 573 35,500 3,300 Level FlightAware UK
05:15AM 49.3230 -8.5010 115° Southeast 473 544 37,000  Climbing FlightAware
05:15AM 49.3064 -8.4483 115° Southeast 496 571 35,500 -2,760 Descending FlightAware UK
05:15AM 49.2894 -8.3940 116° Southeast 496 571 35,500 3,600 Level FlightAware UK
05:15AM 49.2850 -8.3800 116° Southeast 475 547 37,000  Climbing FlightAware
05:16AM 49.2668 -8.3213 116° Southeast 496 571 35,500 -2,580 Descending FlightAware UK
05:16AM 49.2497 -8.2666 116° Southeast 498 573 35,500 3,180 Level FlightAware UK
05:16AM 49.2430 -8.2460 116° Southeast 477 549 37,000  Climbing FlightAware
05:16AM 49.2212 -8.1753 116° Southeast 502 578 35,500  Descending FlightAware UK
05:17AM 49.2030 -8.1190 116° Southeast 479 551 37,000  Climbing FlightAware
05:17AM 49.1866 -8.0655 116° Southeast 502 578 35,500 -2,700 Descending FlightAware UK
05:17AM 49.1690 -8.0100 116° Southeast 502 578 35,500 3,720 Level FlightAware UK
05:17AM 49.1650 -8.0000 116° Southeast 480 552 37,000  Climbing FlightAware
05:18AM 49.1456 -7.9366 116° Southeast 502 578 35,500 -2,520 Descending FlightAware UK
05:18AM 49.1281 -7.8816 116° Southeast 502 578 35,500 3,300 Level FlightAware UK
05:18AM 49.1220 -7.8620 116° Southeast 482 555 37,000  Climbing FlightAware
05:18AM 49.1047 -7.8082 116° Southeast 502 578 35,500 -2,760 Descending FlightAware UK
05:19AM 49.0873 -7.7531 116° Southeast 504 580 35,500 3,600 Level FlightAware UK
05:19AM 49.0830 -7.7400 116° Southeast 482 555 37,000  Climbing FlightAware
05:19AM 49.0638 -7.6797 116° Southeast 506 582 35,500 -2,580 Descending FlightAware UK
05:19AM 49.0461 -7.6247 116° Southeast 504 580 35,500 3,900 Level FlightAware UK
05:20AM 49.0440 -7.6180 116° Southeast 482 555 37,000  Climbing FlightAware
05:20AM 49.0225 -7.5516 116° Southeast 504 580 35,500 -2,460 Descending FlightAware UK
05:20AM 49.0062 -7.4959 114° Southeast 504 580 35,500 3,420 Level FlightAware UK
05:20AM 49.0020 -7.4800 114° Southeast 480 552 37,000  Climbing FlightAware
05:21AM 48.9843 -7.4219 114° Southeast 506 582 35,500 -2,700 Descending FlightAware UK
05:21AM 48.9680 -7.3666 114° Southeast 504 580 35,500 3,060 Level FlightAware UK
05:21AM 48.9630 -7.3480 114° Southeast 477 549 37,000  Climbing FlightAware
05:21AM 48.9419 -7.2740 114° Southeast 502 578 35,500  Descending FlightAware UK
05:22AM 48.9280 -7.2220 114° Southeast 477 549 37,000  Climbing FlightAware
05:22AM 48.9111 -7.1628 114° Southeast 502 578 35,500 -2,760 Descending FlightAware UK
05:22AM 48.8957 -7.1073 113° Southeast 504 580 35,500 3,600 Level FlightAware UK
05:22AM 48.8920 -7.0950 113° Southeast 476 548 37,000  Climbing FlightAware
05:23AM 48.8751 -7.0335 113° Southeast 504 580 35,500 -2,580 Descending FlightAware UK
05:23AM 48.8597 -6.9782 113° Southeast 504 580 35,500 3,180 Level FlightAware UK
05:23AM 48.8530 -6.9540 113° Southeast 476 548 37,000  Climbing FlightAware
05:23AM 48.8336 -6.8856 113° Southeast 504 580 35,500 -2,340 Descending FlightAware UK
05:24AM 48.8181 -6.8305 113° Southeast 504 580 35,500 4,680 Level FlightAware UK
05:24AM 48.8180 -6.8310 113° Southeast 474 545 37,000  Climbing FlightAware
05:24AM 48.8024 -6.7755 113° Southeast 504 580 35,500 -2,580 Descending FlightAware UK
05:24AM 48.7867 -6.7207 114° Southeast 504 580 35,500 3,180 Level FlightAware UK
05:25AM 48.7790 -6.6970 114° Southeast 474 545 37,000  Climbing FlightAware
05:25AM 48.7604 -6.6300 114° Southeast 502 578 35,500  Descending FlightAware UK
05:25AM 48.7460 -6.5820 114° Southeast 474 545 37,000  Climbing FlightAware
05:25AM 48.7287 -6.5210 114° Southeast 504 580 35,500  Descending FlightAware UK
05:26AM 48.7090 -6.4510 114° Southeast 473 544 37,000  Climbing FlightAware
05:26AM 48.6918 -6.3937 114° Southeast 502 578 35,500 -2,520 Descending FlightAware UK
05:26AM 48.6698 -6.3439 124° Southeast 502 578 35,500 3,300 Level FlightAware UK
05:27AM 48.6600 -6.3210 124° Southeast 479 551 37,000  Climbing FlightAware
05:27AM 48.6392 -6.2779 124° Southeast 500 575 35,500 -2,760 Descending FlightAware UK
05:27AM 48.6161 -6.2287 125° Southeast 500 575 35,500 3,600 Level FlightAware UK
05:27AM 48.6090 -6.2150 125° Southeast 480 552 37,000 1,680 Climbing FlightAware
05:28AM 48.5530 -6.0940 125° Southeast 479 551 37,000 -1,440 Level FlightAware
05:28AM 48.5251 -6.0308 125° Southeast 500 575 35,500  Descending FlightAware UK
05:29AM 48.5030 -5.9810 125° Southeast 480 552 37,000  Climbing FlightAware
05:29AM 48.4799 -5.9316 125° Southeast 500 575 35,500 -2,700 Descending FlightAware UK
05:29AM 48.4572 -5.8821 125° Southeast 502 578 35,500 3,720 Level FlightAware UK
05:29AM 48.4540 -5.8770 125° Southeast 480 552 37,000  Climbing FlightAware
05:30AM 48.4269 -5.8160 125° Southeast 500 575 35,500 -2,520 Descending FlightAware UK
05:30AM 48.4039 -5.7660 125° Southeast 500 575 35,500 3,300 Level FlightAware UK
05:30AM 48.3980 -5.7530 125° Southeast 480 552 37,000  Climbing FlightAware
05:30AM 48.3738 -5.7002 125° Southeast 502 578 35,500 -2,760 Descending FlightAware UK
05:31AM 48.3511 -5.6509 125° Southeast 502 578 35,500 3,600 Level FlightAware UK
05:31AM 48.3470 -5.6430 125° Southeast 482 555 37,000  Climbing FlightAware
05:31AM 48.3209 -5.5851 125° Southeast 504 580 35,500 -2,580 Descending FlightAware UK
05:31AM 48.2984 -5.5354 124° Southeast 504 580 35,500 3,180 Level FlightAware UK
05:32AM 48.2880 -5.5130 124° Southeast 482 555 37,000  Climbing FlightAware
05:32AM 48.2608 -5.4528 124° Southeast 506 582 35,500  Descending FlightAware UK
05:32AM 48.2380 -5.4060 124° Southeast 481 554 37,000  Climbing FlightAware
05:33AM 48.2000 -5.3211 124° Southeast 504 580 35,500  Descending FlightAware UK
05:33AM 48.1870 -5.2930 124° Southeast 481 554 37,000 1,560 Climbing FlightAware
05:34AM 48.1290 -5.1670 125° Southeast 482 555 37,000  Level FlightAware
05:34AM 48.0810 -5.0600 124° Southeast 482 555 37,000  Level FlightAware
05:35AM 48.0280 -4.9470 125° Southeast 483 556 37,000  Level FlightAware
05:36AM 47.9780 -4.8400 125° Southeast 483 556 37,000  Level FlightAware
05:36AM 47.9210 -4.7170 125° Southeast 483 556 37,000  Level FlightAware
05:37AM 47.8700 -4.6070 125° Southeast 485 558 37,000  Level FlightAware
05:38AM 47.8330 -4.5240 124° Southeast 485 558 37,000  Level FlightAware
05:38AM 47.7830 -4.4130 124° Southeast 486 559 37,000  Level FlightAware
05:39AM 47.7250 -4.2850 124° Southeast 486 559 37,000  Level FlightAware
05:40AM 47.6790 -4.1750 122° Southeast 483 556 37,000  Level FlightAware
05:40AM 47.6430 -4.0370 111° Southeast 482 555 37,000  Level FlightAware
05:41AM 47.6080 -3.9150 113° Southeast 482 555 37,000  Level FlightAware
05:42AM 47.5730 -3.7940 113° Southeast 480 552 37,000  Level FlightAware
05:42AM 47.5350 -3.6570 112° Southeast 480 552 37,000  Level FlightAware
05:43AM 47.5000 -3.5330 113° Southeast 480 552 37,000  Level FlightAware
05:44AM 47.4630 -3.4040 113° Southeast 479 551 37,000  Level FlightAware
05:45AM 47.4280 -3.2800 113° Southeast 479 551 37,000  Level FlightAware
05:45AM 47.3940 -3.1630 113° Southeast 479 551 37,000  Level FlightAware
05:46AM 47.3530 -3.0220 113° Southeast 478 550 37,000  Level FlightAware
05:47AM 47.3190 -2.9050 113° Southeast 478 550 37,000  Level FlightAware
05:47AM 47.2790 -2.7710 114° Southeast 479 551 37,000  Level FlightAware
05:48AM 47.2440 -2.6510 113° Southeast 479 551 37,000  Level FlightAware
05:49AM 47.2040 -2.5140 113° Southeast 479 551 37,000  Level FlightAware
05:49AM 47.1700 -2.4030 114° Southeast 480 552 37,000  Level FlightAware
05:50AM 47.1300 -2.2660 113° Southeast 480 552 37,000  Level FlightAware
05:51AM 47.0940 -2.1440 113° Southeast 480 552 37,000  Level FlightAware
05:52AM 47.0570 -2.0250 114° Southeast 480 552 37,000  Level FlightAware
05:52AM 47.0170 -1.8910 114° Southeast 480 552 37,000  Level FlightAware
05:53AM 46.9830 -1.7820 115° Southeast 479 551 37,000  Level FlightAware
05:54AM 46.9440 -1.6540 114° Southeast 479 551 37,000  Level FlightAware
05:54AM 46.9040 -1.5240 114° Southeast 480 552 37,000  Level FlightAware
05:55AM 46.8680 -1.4060 114° Southeast 480 552 37,000  Level FlightAware
05:56AM 46.8250 -1.2670 114° Southeast 480 552 37,000  Level FlightAware
05:56AM 46.7890 -1.1520 115° Southeast 480 552 37,000  Level FlightAware
05:57AM 46.7520 -1.0340 115° Southeast 481 554 37,000  Level FlightAware
05:58AM 46.7160 -0.9020 112° Southeast 480 552 37,000  Level FlightAware
05:58AM 46.6870 -0.7970 112° Southeast 481 554 37,000  Level FlightAware
05:59AM 46.6450 -0.6480 112° Southeast 482 555 37,000  Level FlightAware
06:00AM 46.6100 -0.5200 112° Southeast 482 555 37,000  Level FlightAware
06:01AM 46.5810 -0.4180 112° Southeast 482 555 37,000  Level FlightAware
06:02AM 46.5250 -0.2390 114° Southeast 481 554 37,000  Level FlightAware
06:02AM 46.4930 -0.1310 113° Southeast 487 560 37,000  Level FlightAware
06:03AM 46.4600 -0.0180 113° Southeast 487 560 37,000  Level FlightAware
06:04AM 46.4030 0.1720 113° Southeast 487 560 37,000  Level FlightAware
06:04AM 46.3730 0.2740 113° Southeast 491 565 37,000  Level FlightAware
06:05AM 46.3260 0.4300 114° Southeast 491 565 37,000  Level FlightAware
06:06AM 46.2790 0.5870 113° Southeast 491 565 37,000  Level FlightAware
06:07AM 46.2490 0.6900 113° Southeast 491 565 37,000  Level FlightAware
06:08AM 46.2180 0.7930 113° Southeast 491 565 37,000  Level FlightAware
06:09AM 46.1510 1.0090 114° Southeast 491 565 37,000  Level FlightAware
06:09AM 46.1070 1.1290 118° Southeast 491 565 37,000  Level FlightAware
06:10AM 46.0550 1.2880 115° Southeast 491 565 37,000  Level FlightAware
06:11AM 46.0010 1.4490 116° Southeast 488 562 37,000  Level FlightAware
06:12AM 45.9500 1.5970 116° Southeast 485 558 37,000  Level FlightAware
06:13AM 45.9100 1.7150 116° Southeast 486 559 37,000  Level FlightAware
06:13AM 45.8650 1.8460 116° Southeast 486 559 37,000  Level FlightAware
06:14AM 45.8310 1.9470 116° Southeast 486 559 37,000  Level FlightAware
06:15AM 45.7840 2.0790 117° Southeast 485 558 37,000  Level FlightAware
06:15AM 45.7390 2.2080 117° Southeast 486 559 37,000  Level FlightAware
06:16AM 45.6980 2.3230 117° Southeast 487 560 37,000  Level FlightAware
06:17AM 45.6540 2.4530 116° Southeast 489 563 37,000  Level FlightAware
06:17AM 45.6120 2.5710 117° Southeast 490 564 37,000  Level FlightAware
06:18AM 45.5650 2.7000 117° Southeast 491 565 37,000  Level FlightAware
06:19AM 45.5250 2.8070 118° Southeast 493 567 37,000  Level FlightAware
06:20AM 45.4840 2.9230 117° Southeast 494 568 37,000  Level FlightAware
06:20AM 45.4350 3.0590 117° Southeast 494 568 37,000  Level FlightAware
06:21AM 45.3950 3.1680 118° Southeast 495 570 37,000  Level FlightAware
06:22AM 45.3510 3.2930 117° Southeast 496 571 37,000  Level FlightAware
06:22AM 45.3060 3.4190 117° Southeast 498 573 37,000  Level FlightAware
06:23AM 45.2660 3.5330 116° Southeast 499 574 37,000  Level FlightAware
06:24AM 45.2180 3.6700 116° Southeast 499 574 37,000  Level FlightAware
06:24AM 45.1760 3.7900 116° Southeast 499 574 37,000  Level FlightAware
06:25AM 45.1340 3.9070 117° Southeast 499 574 37,000  Level FlightAware
06:26AM 45.0890 4.0330 117° Southeast 500 575 37,000  Level FlightAware
06:27AM 45.0490 4.1470 116° Southeast 500 575 37,000  Level FlightAware
06:27AM 44.9990 4.2870 117° Southeast 499 574 37,000  Level FlightAware
06:28AM 44.9540 4.4010 119° Southeast 500 575 37,000  Level FlightAware
06:29AM 44.8970 4.5200 124° Southeast 499 574 37,000  Level FlightAware
06:29AM 44.8470 4.6260 124° Southeast 500 575 37,000  Level FlightAware
06:30AM 44.7890 4.7520 123° Southeast 502 578 37,000  Level FlightAware
06:31AM 44.7370 4.8640 123° Southeast 503 579 37,000  Level FlightAware
06:31AM 44.6880 4.9680 124° Southeast 503 579 37,000  Level FlightAware
06:32AM 44.6320 5.0880 123° Southeast 504 580 37,000  Level FlightAware
06:33AM 44.5790 5.2030 123° Southeast 505 581 37,000  Level FlightAware
06:34AM 44.5280 5.3090 124° Southeast 503 579 37,000  Level FlightAware
06:34AM 44.4670 5.4360 124° Southeast 501 577 37,000  Level FlightAware
06:35AM 44.4170 5.5410 124° Southeast 500 575 37,000  Level FlightAware
06:36AM 44.3620 5.6560 124° Southeast 500 575 37,000  Level FlightAware
06:36AM 44.3080 5.7660 124° Southeast 502 578 37,000  Level FlightAware
06:37AM 44.2480 5.8920 124° Southeast 502 578 37,000  Level FlightAware
06:38AM 44.1950 5.9990 125° Southeast 505 581 37,000  Level FlightAware
06:38AM 44.1430 6.1040 125° Southeast 505 581 37,000  Level FlightAware
06:39AM 44.0860 6.2220 124° Southeast 505 581 37,000  Level FlightAware
06:40AM 44.0320 6.3320 124° Southeast 506 582 37,000  Level FlightAware
06:41AM 43.9790 6.4400 124° Southeast 510 587 37,000  Level FlightAware
06:41AM 43.9200 6.5580 125° Southeast 511 588 37,000  Level FlightAware
06:42AM 43.8660 6.6660 125° Southeast 511 588 37,000  Level FlightAware
06:43AM 43.8070 6.7890 124° Southeast 515 593 37,000  Level FlightAware
06:43AM 43.7600 6.8950 122° Southeast 514 592 37,000  Level FlightAware
06:44AM 43.7080 7.0090 122° Southeast 512 589 37,000  Level FlightAware
06:45AM 43.6490 7.1440 121° Southeast 513 590 37,000  Level FlightAware
06:45AM 43.6000 7.2560 121° Southeast 513 590 37,000  Level FlightAware
06:46AM 43.5480 7.3730 121° Southeast 515 593 37,000  Level FlightAware
06:47AM 43.4970 7.4770 124° Southeast 514 592 37,000  Level FlightAware
06:48AM 43.4340 7.6080 123° Southeast 515 593 37,000  Level FlightAware
06:48AM 43.3800 7.7190 124° Southeast 515 593 37,000  Level FlightAware
06:49AM 43.3290 7.8250 123° Southeast 517 595 37,000  Level FlightAware
06:50AM 43.2660 7.9530 124° Southeast 515 593 37,000  Level FlightAware
06:50AM 43.2130 8.0610 124° Southeast 513 590 37,000  Level FlightAware
06:51AM 43.1540 8.1760 125° Southeast 514 592 37,000  Level FlightAware
06:52AM 43.1000 8.2860 124° Southeast 514 592 37,000  Level FlightAware
06:52AM 43.0470 8.3910 125° Southeast 515 593 37,000  Level FlightAware
06:54AM 42.9380 8.6070 125° Southeast 511 588 37,000  Level FlightAware
06:55AM 42.8830 8.7150 125° Southeast 509 586 37,000  Level FlightAware
06:55AM 42.8230 8.8370 124° Southeast 508 585 37,000  Level FlightAware
06:56AM 42.7710 8.9400 124° Southeast 508 585 37,000  Level FlightAware
06:57AM 42.6960 9.0950 123° Southeast 516 594 37,000  Level FlightAware
06:58AM 42.6540 9.2360 112° Southeast 526 605 37,000  Level FlightAware
06:58AM 42.6180 9.3590 112° Southeast 526 605 37,000  Level FlightAware
06:59AM 42.5790 9.5010 110° East 538 619 37,000  Level FlightAware
07:00AM 42.5510 9.6060 110° East 537 618 37,000  Level FlightAware
07:00AM 42.5110 9.7550 110° East 543 625 37,000  Level FlightAware
07:01AM 42.4730 9.8960 110° East 540 621 37,000  Level FlightAware
07:02AM 42.4370 10.0260 111° Southeast 546 628 37,000  Level FlightAware
07:03AM 42.3960 10.1710 111° Southeast 551 634 37,000  Level FlightAware
07:03AM 42.3730 10.3000 104° East 564 649 37,000  Level FlightAware
07:04AM 42.3460 10.4620 103° East 564 649 37,000  Level FlightAware
07:05AM 42.3270 10.5830 102° East 566 651 37,000  Level FlightAware
07:06AM 42.2900 10.8100 102° East 565 650 37,000  Level FlightAware
07:07AM 42.2580 11.0160 102° East 558 642 37,000  Level FlightAware
07:08AM 42.2300 11.2030 101° East 554 638 37,000  Level FlightAware
07:08AM 42.2070 11.3540 102° East 549 632 37,000  Level FlightAware
07:10AM 42.1390 11.6610 107° East 524 603 37,000  Level FlightAware
07:12AM 41.9960 11.9190 127° Southeast 520 598 37,000  Level FlightAware
07:13AM 41.8890 12.1340 124° Southeast 519 597 37,000  Level FlightAware
07:14AM 41.8320 12.2380 126° Southeast 517 595 37,000  Level FlightAware
07:15AM 41.7470 12.3920 126° Southeast 517 595 37,000  Level FlightAware
07:16AM 41.6620 12.5460 126° Southeast 512 589 37,000  Level FlightAware
07:17AM 41.5610 12.7280 127° Southeast 510 587 37,000  Level FlightAware
07:18AM 41.4860 12.8630 127° Southeast 516 594 37,000  Level FlightAware
07:18AM 41.4280 12.9680 126° Southeast 519 597 37,000  Level FlightAware
07:19AM 41.3730 13.0680 126° Southeast 522 601 37,000  Level FlightAware
07:20AM 41.3070 13.1870 126° Southeast 523 602 37,000  Level FlightAware
07:20AM 41.2520 13.2850 127° Southeast 524 603 37,000  Level FlightAware
07:21AM 41.1930 13.3910 126° Southeast 526 605 37,000  Level FlightAware
07:22AM 41.1340 13.4970 126° Southeast 524 603 37,000  Level FlightAware
07:23AM 41.0630 13.6220 127° Southeast 520 598 37,000  Level FlightAware
07:23AM 41.0000 13.7320 127° Southeast 519 597 37,000  Level FlightAware
07:24AM 40.9420 13.8360 126° Southeast 520 598 37,000  Level FlightAware
07:25AM 40.8770 13.9480 127° Southeast 522 601 37,000  Level FlightAware
07:25AM 40.8190 14.0520 126° Southeast 523 602 37,000  Level FlightAware
07:26AM 40.7590 14.1560 127° Southeast 525 604 37,000  Level FlightAware
07:27AM 40.6950 14.2660 127° Southeast 528 608 37,000  Level FlightAware
07:27AM 40.6340 14.3710 127° Southeast 531 611 37,000  Level FlightAware
07:28AM 40.5670 14.4870 127° Southeast 531 611 37,000  Level FlightAware
07:29AM 40.5070 14.5920 127° Southeast 531 611 37,000  Level FlightAware
07:30AM 40.4480 14.6920 128° Southeast 530 610 37,000  Level FlightAware
07:30AM 40.3810 14.8070 127° Southeast 530 610 37,000  Level FlightAware
07:31AM 40.3220 14.9060 128° Southeast 532 612 37,000  Level FlightAware
07:32AM 40.2520 15.0260 127° Southeast 534 615 37,000  Level FlightAware
07:32AM 40.1910 15.1290 128° Southeast 536 617 37,000  Level FlightAware
07:33AM 40.1300 15.2320 128° Southeast 538 619 37,000  Level FlightAware
07:34AM 40.0630 15.3440 128° Southeast 539 620 37,000  Level FlightAware
07:34AM 40.0010 15.4470 128° Southeast 541 623 37,000  Level FlightAware
07:35AM 39.9310 15.5660 127° Southeast 542 624 37,000  Level FlightAware
07:36AM 39.8710 15.6640 129° Southeast 544 626 37,000  Level FlightAware
07:37AM 39.8050 15.7720 128° Southeast 545 627 37,000  Level FlightAware
07:37AM 39.7380 15.8830 128° Southeast 547 629 37,000  Level FlightAware
07:38AM 39.6750 15.9890 128° Southeast 547 629 37,000  Level FlightAware
07:39AM 39.6160 16.1170 121° Southeast 559 643 37,000  Level FlightAware
07:39AM 39.5740 16.2420 114° Southeast 557 641 37,000  Level FlightAware
07:40AM 39.5330 16.3540 115° Southeast 558 642 37,000  Level FlightAware
07:41AM 39.4810 16.4920 116° Southeast 554 638 37,000  Level FlightAware
07:41AM 39.4360 16.6070 117° Southeast 555 639 37,000  Level FlightAware
07:42AM 39.3810 16.7470 117° Southeast 557 641 37,000  Level FlightAware
07:43AM 39.3340 16.8650 117° Southeast 559 643 37,000  Level FlightAware
07:44AM 39.2910 16.9830 115° Southeast 560 644 37,000  Level FlightAware
07:44AM 39.2400 17.1210 115° Southeast 560 644 37,000  Level FlightAware
07:45AM 39.2120 17.1940 116° Southeast 560 644 37,000  Level FlightAware
07:46AM 39.1660 17.3170 116° Southeast 561 646 37,000  Level FlightAware
07:46AM 39.1190 17.4460 115° Southeast 560 644 37,000  Level FlightAware
07:47AM 39.0640 17.5900 116° Southeast 556 640 37,000  Level FlightAware
07:48AM 39.0280 17.6850 116° Southeast 557 641 37,000  Level FlightAware
07:49AM 38.9560 17.8740 116° Southeast 552 635 37,000  Level FlightAware
07:49AM 38.9010 18.0150 117° Southeast 552 635 37,000  Level FlightAware
07:50AM 38.8570 18.1320 116° Southeast 550 633 37,000  Level FlightAware
07:51AM 38.8150 18.2400 116° Southeast 549 632 37,000  Level FlightAware
07:51AM 38.7730 18.3510 116° Southeast 548 631 37,000  Level FlightAware
07:52AM 38.7270 18.4670 117° Southeast 549 632 37,000  Level FlightAware
07:53AM 38.6790 18.5890 117° Southeast 550 633 37,000  Level FlightAware
07:53AM 38.6340 18.7050 116° Southeast 550 633 37,000  Level FlightAware
07:54AM 38.5840 18.8310 117° Southeast 550 633 37,000  Level FlightAware
07:55AM 38.5470 18.9440 113° Southeast 553 636 37,000  Level FlightAware
07:56AM 38.5090 19.0650 112° Southeast 553 636 37,000  Level FlightAware
07:56AM 38.4600 19.2380 110° East 554 638 37,000  Level FlightAware
07:57AM 38.4200 19.3720 111° Southeast 554 638 37,000  Level FlightAware
07:58AM 38.3850 19.4880 111° Southeast 554 638 37,000  Level FlightAware
07:59AM 38.3440 19.6250 111° Southeast 555 639 37,000  Level FlightAware
07:59AM 38.3090 19.7380 112° Southeast 556 640 37,000  Level FlightAware
08:00AM 38.2680 19.8720 111° Southeast 557 641 37,000  Level FlightAware
08:01AM 38.2290 20.0000 111° Southeast 558 642 37,000  Level FlightAware
08:01AM 38.1970 20.1040 111° Southeast 557 641 37,000  Level FlightAware
08:02AM 38.1430 20.2770 112° Southeast 556 640 37,000  Level FlightAware
08:03AM 38.1120 20.3770 111° Southeast 553 636 37,000  Level FlightAware
08:03AM 38.0650 20.5290 111° Southeast 557 641 37,000  Level FlightAware
08:04AM 38.0250 20.6560 112° Southeast 558 642 37,000  Level FlightAware
08:05AM 37.9880 20.7750 111° Southeast 558 642 37,000  Level FlightAware
08:05AM 37.9440 20.9150 112° Southeast 558 642 37,000  Level FlightAware
08:06AM 37.9010 21.0510 112° Southeast 560 644 37,000  Level FlightAware
08:07AM 37.8670 21.1550 112° Southeast 560 644 37,000  Level FlightAware
08:07AM 37.8240 21.2910 112° Southeast 560 644 37,000  Level FlightAware
08:08AM 37.7790 21.4310 112° Southeast 560 644 37,000  Level FlightAware
08:09AM 37.7390 21.5550 112° Southeast 560 644 37,000  Level FlightAware
08:10AM 37.6960 21.6850 113° Southeast 559 643 37,000  Level FlightAware
08:10AM 37.6570 21.8050 112° Southeast 561 646 37,000  Level FlightAware
08:11AM 37.6170 21.9260 113° Southeast 560 644 37,000  Level FlightAware
08:12AM 37.5710 22.0680 112° Southeast 560 644 37,000  Level FlightAware
08:12AM 37.5310 22.1880 113° Southeast 559 643 37,000  Level FlightAware
08:13AM 37.4880 22.3170 113° Southeast 558 642 37,000  Level FlightAware
08:14AM 37.4480 22.4370 113° Southeast 557 641 37,000  Level FlightAware
08:15AM 37.4010 22.5770 113° Southeast 555 639 37,000  Level FlightAware
08:15AM 37.3620 22.6950 113° Southeast 554 638 37,000  Level FlightAware
08:16AM 37.3220 22.8110 113° Southeast 555 639 37,000  Level FlightAware
08:17AM 37.2780 22.9410 113° Southeast 555 639 37,000  Level FlightAware
08:17AM 37.2360 23.0660 113° Southeast 553 636 37,000  Level FlightAware
08:18AM 37.1920 23.1920 114° Southeast 553 636 37,000  Level FlightAware
08:19AM 37.1510 23.3130 113° Southeast 554 638 37,000  Level FlightAware
08:19AM 37.1120 23.4280 113° Southeast 553 636 37,000  Level FlightAware
08:20AM 37.0640 23.5660 114° Southeast 554 638 37,000  Level FlightAware
08:21AM 37.0230 23.6840 113° Southeast 554 638 37,000  Level FlightAware
08:22AM 36.9790 23.8100 114° Southeast 555 639 37,000  Level FlightAware
08:22AM 36.9360 23.9300 114° Southeast 556 640 37,000  Level FlightAware
08:23AM 36.8950 24.0480 113° Southeast 556 640 37,000  Level FlightAware
08:24AM 36.8470 24.1830 114° Southeast 557 641 37,000  Level FlightAware
08:24AM 36.8060 24.2980 114° Southeast 556 640 37,000  Level FlightAware
08:25AM 36.7600 24.4270 114° Southeast 556 640 37,000  Level FlightAware
08:26AM 36.7220 24.5350 114° Southeast 557 641 37,000  Level FlightAware
08:26AM 36.6750 24.6640 114° Southeast 557 641 37,000  Level FlightAware
08:27AM 36.6270 24.7990 114° Southeast 558 642 37,000  Level FlightAware
08:28AM 36.5910 24.8980 114° Southeast 557 641 37,000  Level FlightAware
08:28AM 36.5430 25.0290 114° Southeast 556 640 37,000  Level FlightAware
08:29AM 36.5000 25.1460 115° Southeast 556 640 37,000  Level FlightAware
08:30AM 36.4530 25.2760 114° Southeast 554 638 37,000  Level FlightAware
08:31AM 36.4150 25.3800 114° Southeast 553 636 37,000  Level FlightAware
08:31AM 36.3630 25.5210 115° Southeast 551 634 37,000  Level FlightAware
08:32AM 36.3230 25.6280 115° Southeast 553 636 37,000  Level FlightAware
08:33AM 36.2720 25.7660 115° Southeast 554 638 37,000  Level FlightAware
08:33AM 36.2350 25.8610 116° Southeast 556 640 37,000  Level FlightAware
08:34AM 36.1840 25.9970 115° Southeast 554 638 37,000  Level FlightAware
08:35AM 36.1380 26.1210 115° Southeast 555 639 37,000  Level FlightAware
08:35AM 36.0950 26.2340 115° Southeast 556 640 37,000  Level FlightAware
08:36AM 36.0470 26.3620 115° Southeast 556 640 37,000  Level FlightAware
08:37AM 36.0120 26.4540 115° Southeast 560 644 37,000  Level FlightAware
08:38AM 35.9560 26.6020 115° Southeast 560 644 37,000  Level FlightAware
08:38AM 35.9210 26.6910 116° Southeast 559 643 37,000  Level FlightAware
08:39AM 35.8630 26.8410 115° Southeast 560 644 37,000  Level FlightAware
08:40AM 35.8220 26.9480 115° Southeast 560 644 37,000  Level FlightAware
08:40AM 35.7830 27.0490 115° Southeast 561 646 37,000  Level FlightAware
08:41AM 35.7310 27.1810 116° Southeast 563 648 37,000  Level FlightAware
08:42AM 35.6720 27.3320 116° Southeast 37,000  Level FlightAware
08:43AM 35.6100 27.4910 116° Southeast 566 651 37,000  Level FlightAware
08:44AM 35.5440 27.6610 115° Southeast 566 651 37,000  Level FlightAware
08:44AM 35.5060 27.7600 115° Southeast 566 651 37,000  Level FlightAware
08:45AM 35.4690 27.8590 115° Southeast 566 651 37,000  Level FlightAware
08:46AM 35.4020 28.0130 118° Southeast 563 648 37,000  Level FlightAware
08:46AM 35.3490 28.1470 116° Southeast 559 643 37,000  Level FlightAware
08:47AM 35.2980 28.2740 116° Southeast 558 642 37,000  Level FlightAware
08:48AM 35.2510 28.3900 116° Southeast 558 642 37,000  Level FlightAware
08:49AM 35.2050 28.5040 116° Southeast 559 643 37,000  Level FlightAware
08:49AM 35.1540 28.6280 117° Southeast 559 643 37,000  Level FlightAware
08:50AM 35.1100 28.7380 116° Southeast 558 642 37,000  Level FlightAware
08:51AM 35.0570 28.8650 117° Southeast 552 635 37,000  Level FlightAware
08:52AM 35.0070 28.9910 116° Southeast 552 635 37,000  Level FlightAware
08:52AM 34.9470 29.1330 117° Southeast 554 638 37,000  Level FlightAware
08:53AM 34.8930 29.2610 117° Southeast 556 640 37,000  Level FlightAware
08:54AM 34.8580 29.3480 116° Southeast 556 640 37,000  Level FlightAware
08:54AM 34.8080 29.4680 117° Southeast 557 641 37,000  Level FlightAware
08:55AM 34.7520 29.5990 117° Southeast 554 638 37,000  Level FlightAware
08:56AM 34.7030 29.7170 117° Southeast 554 638 37,000  Level FlightAware
08:57AM 34.6440 29.8560 117° Southeast 553 636 37,000  Level FlightAware
08:58AM 34.5780 29.9980 119° Southeast 553 636 37,000  Level FlightAware
08:58AM 34.5260 30.1010 121° Southeast 553 636 37,000  Level FlightAware
08:59AM 34.4550 30.2510 120° Southeast 551 634 37,000  Level FlightAware
09:00AM 34.4030 30.3580 120° Southeast 551 634 37,000  Level FlightAware
09:00AM 34.3520 30.4670 120° Southeast 552 635 37,000  Level FlightAware
09:01AM 34.2940 30.5880 120° Southeast 554 638 37,000  Level FlightAware
09:02AM 34.2410 30.6980 120° Southeast 552 635 37,000  Level FlightAware
09:03AM 34.1830 30.8190 120° Southeast 553 636 37,000  Level FlightAware
09:03AM 34.1340 30.9210 120° Southeast 553 636 37,000  Level FlightAware
09:04AM 34.0770 31.0360 121° Southeast 554 638 37,000  Level FlightAware
09:05AM 34.0190 31.1540 121° Southeast 554 638 37,000  Level FlightAware
09:05AM 33.9640 31.2660 121° Southeast 555 639 37,000  Level FlightAware
09:06AM 33.9110 31.3740 121° Southeast 555 639 37,000  Level FlightAware
09:07AM 33.8520 31.4950 120° Southeast 557 641 37,000  Level FlightAware
09:07AM 33.7990 31.6020 121° Southeast 561 646 37,000  Level FlightAware
09:08AM 33.7380 31.7220 121° Southeast 555 639 37,000  Level FlightAware
09:09AM 33.6860 31.8290 120° Southeast 554 638 37,000  Level FlightAware
09:10AM 33.6250 31.9500 121° Southeast 553 636 37,000  Level FlightAware
09:10AM 33.5750 32.0510 121° Southeast 552 635 37,000  Level FlightAware
09:11AM 33.5230 32.1540 121° Southeast 551 634 37,000  Level FlightAware
09:12AM 33.4610 32.2750 122° Southeast 551 634 37,000  Level FlightAware
09:12AM 33.4090 32.3800 121° Southeast 549 632 37,000 -780 Level FlightAware
09:13AM 33.3520 32.4930 121° Southeast 557 641 35,900 -1,500 Descending FlightAware
09:15AM 33.2280 32.7340 122° Southeast 560 644 33,700 -1,500 Descending FlightAware
09:16AM 33.1460 32.8940 121° Southeast 552 635 32,200 -1,800 Descending FlightAware
09:17AM 33.0540 33.0730 121° Southeast 535 616 29,800 -2,100 Descending FlightAware
09:17AM 33.0050 33.1670 122° Southeast 525 604 28,400 -2,100 Descending FlightAware
09:18AM 32.9480 33.2790 121° Southeast 506 582 26,900 -2,220 Descending FlightAware
09:19AM 32.8920 33.3860 122° Southeast 492 566 25,100 -2,340 Descending FlightAware
09:20AM 32.8460 33.4750 122° Southeast 479 551 23,600 -2,400 Descending FlightAware
09:20AM 32.7970 33.5670 122° Southeast 466 536 21,900 -2,340 Descending FlightAware
09:21AM 32.7540 33.6490 122° Southeast 455 524 20,500 -2,340 Descending FlightAware
09:22AM 32.7020 33.7500 121° Southeast 447 514 18,600 -2,400 Descending FlightAware
09:22AM 32.6610 33.8280 122° Southeast 440 506 17,100 -2,280 Descending FlightAware
09:23AM 32.6120 33.9210 122° Southeast 424 488 15,400 -2,280 Descending FlightAware
09:24AM 32.5710 33.9990 122° Southeast 414 476 13,900 -2,280 Descending FlightAware
09:25AM 32.5250 34.0850 122° Southeast 403 464 12,200 -2,220 Descending FlightAware
09:25AM 32.4840 34.1570 124° Southeast 392 451 10,800 -1,380 Descending FlightAware
09:26AM 32.4360 34.2190 133° Southeast 353 406 10,400 -540 Descending FlightAware
09:27AM 32.3880 34.2760 135° Southeast 318 366 10,100 -480 Descending FlightAware
09:27AM 32.3620 34.3060 136° Southeast 299 344 9,900 -600 Descending FlightAware
09:28AM 32.3250 34.3490 136° Southeast 296 341 9,500 -360 Descending FlightAware
09:28AM 32.3010 34.3780 134° Southeast 296 341 9,500  Level FlightAware
09:29AM 32.2760 34.4070 136° Southeast 296 341 9,500  Level FlightAware
09:29AM 32.2510 34.4370 135° Southeast 296 341 9,500  Level FlightAware
09:32AM 32.0712 34.7480 125° Southeast  Level FlightAware Approximate
09:33AM 32.0000 34.8667 125° Southeast  Level FlightAware Approximate
09:34AM 32.0095 34.8769 125° Southeast  Level Estimated
09:35AM 32.0095 34.8769 125° Southeast  Level Estimated
09:36AM 32.0095 34.8769 125° Southeast  Level Estimated
09:37AM 32.0095 34.8769 125° Southeast  Level Estimated
09:38AM 32.0095 34.8769 125° Southeast  Level Estimated
09:39AM 32.0095 34.8769 125° Southeast  Level Estimated
09:40AM 32.0095 34.8769 125° Southeast  Level Estimated